This is the latest recevied weather packets stored in our database for station/object W5GMO. If no packets are shown the sender has not sent any weather packets the latest 10 day(s).
| Time | Temp. | Humidity | Pressure | Rain* | Wind** | Luminosity | Snow |
|---|---|---|---|---|---|---|---|
| 1788608174 | 23.89° C | 1% | 1011.7 hPa | 0 mm | - | 81 W/m² | - |
| 1788607870 | 23.89° C | 1% | 1011.8 hPa | 0 mm | - | 58 W/m² | - |
| 1788607564 | 23.89° C | 1% | 1011.8 hPa | 0 mm | - | 36 W/m² | - |
| 1788607260 | 23.89° C | 1% | 1011.8 hPa | 0 mm | - | 48 W/m² | - |
| 1788606954 | 23.33° C | 1% | 1011.5 hPa | 0 mm | - | 39 W/m² | - |
| 1788606654 | 23.33° C | 1% | 1011.4 hPa | 0 mm | - | 31 W/m² | - |
| 1788606353 | 23.33° C | 1% | 1011.3 hPa | 0 mm | - | 22 W/m² | - |
| 1788606078 | 22.78° C | 1% | 1011.3 hPa | 0 mm | - | 20 W/m² | - |
| 1788605743 | 22.78° C | 1% | 1011.2 hPa | 0 mm | - | 14 W/m² | - |
| 1788605441 | 22.78° C | 1% | 1011.2 hPa | 0 mm | - | 10 W/m² | - |
| 1788605138 | 22.78° C | 1% | 1011.3 hPa | 0 mm | - | 6 W/m² | - |
| 1788604837 | 22.78° C | 1% | 1011.2 hPa | 0 mm | - | 4 W/m² | - |
| 1788604532 | 22.78° C | 1% | 1011 hPa | 0 mm | - | 2 W/m² | - |
| 1788604229 | 22.78° C | 1% | 1010.9 hPa | 0 mm | - | 1 W/m² | - |
| 1788603925 | 22.78° C | 1% | 1010.9 hPa | 0 mm | - | 0 W/m² | - |
| 1788603621 | 22.78° C | 1% | 1010.9 hPa | 0 mm | - | 0 W/m² | - |
| 1788603319 | 22.78° C | 1% | 1011 hPa | 0 mm | - | 0 W/m² | - |
| 1788603048 | 22.78° C | 1% | 1011 hPa | 0 mm | - | 0 W/m² | - |
| 1788602715 | 22.78° C | 1% | 1010.9 hPa | 0 mm | - | 0 W/m² | - |
| 1788602413 | 22.78° C | 1% | 1011 hPa | 0 mm | - | 0 W/m² | - |
| 1788602108 | 22.78° C | 1% | 1010.9 hPa | 0 mm | - | 0 W/m² | - |
| 1788601803 | 22.78° C | 1% | 1010.9 hPa | 0 mm | - | 0 W/m² | - |
| 1788601498 | 22.78° C | 1% | 1010.9 hPa | 0 mm | - | 0 W/m² | - |
| 1788601197 | 22.78° C | 1% | 1010.8 hPa | 0 mm | - | 0 W/m² | - |
| 1788600892 | 22.78° C | 1% | 1010.8 hPa | 0 mm | - | 0 W/m² | - |
* Rain latest hour (hover to see other rain measurements)
** Current wind speed in m/s (hover to see current wind gust speed)